EW6672 Weather Reports


time (UTC)temp
F
wind
direction
speed
knots
gust
knots
rain 1hr
in
rain 24hr
in
rain mn
in
humidity
%
barometer
mb
20260505090516 63 135 2.6 7.0 0.00 0.00 0.00
20260505085516 63 158 2.6 6.1 0.00 0.00 0.00
20260505084516 64 113 1.7 4.3 0.00 0.00 0.00
20260505083516 63 135 2.6 5.2 0.00 0.00 0.00
20260505082516 62 180 2.6 7.0 0.00 0.00 0.00
20260505081516 62 203 3.5 8.7 0.00 0.00 0.00
20260505080516 63 270 1.7 6.1 0.00 0.00 0.00
20260505075516 64 135 2.6 5.2 0.00 0.00 0.00
20260505074516 64 158 1.7 4.3 0.00 0.00 0.00
20260505073516 63 135 0.9 1.7 0.00 0.00 0.00
20260505072516 63 135 0.9 2.6 0.00 0.00 0.00
20260505071516 62 135 0.9 1.7 0.00 0.00 0.00
20260505070516 62 0.0 1.7 0.00 0.00 0.00
20260505065516 61 113 0.9 1.7 0.00 0.00 0.00
20260505064516 59 0.0 0.9 0.00 0.00 0.00
20260505063516 56 0.0 0.9 0.00 0.00 0.00
20260505062516 54 0.0 1.7 0.00 0.00 0.00
20260505061516 52 0.0 1.7 0.00 0.00 0.00
20260505060516 50 0.0 0.9 0.00 0.00 0.00
20260505055516 48 0.0 0.9 0.00 0.00 0.00
20260505054516 45 0.0 0.9 0.00 0.00 0.00
20260505053517 43 0.0 0.9 0.00 0.00 0.00
20260505052516 42 0.0 0.9 0.00 0.00 0.00
20260505051516 40 0.0 0.0 0.00 0.00 0.00
20260505050516 39 0.0 0.0 0.00 0.00 0.00
20260505041516 31 0.0 0.0 0.00 0.00 0.00
20260505040516 30 0.0 0.0 0.00 0.00 0.00
20260505035517 30 0.0 0.0 0.00 0.00 0.00
20260505034516 31 0.0 0.0 0.00 0.00 0.00
20260505033516 31 0.0 0.0 0.00 0.00 0.00
20260505032516 32 0.0 0.9 0.00 0.00 0.00
20260505031516 32 0.0 0.0 0.00 0.00 0.00
20260505030516 31 0.0 0.0 0.00 0.00 0.00
20260505025516 32 0.0 0.0 0.00 0.00 0.00
20260505024516 32 0.0 0.0 0.00 0.00 0.00
20260505023516 31 0.0 0.0 0.00 0.00 0.00
20260505022516 31 0.0 0.9 0.00 0.00 0.00
20260505021516 31 0.0 0.0 0.00 0.00 0.00
20260505020516 31 0.0 0.0 0.00 0.00 0.00
20260505015516 32 0.0 0.0 0.00 0.00 0.00
20260505014516 32 0.0 0.0 0.00 0.00 0.00
20260505013536 33 0.0 0.0 0.00 0.00 0.00
20260505012516 32 0.0 0.0 0.00 0.00 0.00
20260505011516 33 0.0 0.0 0.00 0.00 0.00
20260505010516 33 0.0 0.0 0.00 0.00 0.00
20260505005516 32 0.0 0.0 0.00 0.00 0.00
20260505004516 33 0.0 0.0 0.00 0.00 0.00
20260505003536 34 0.0 0.0 0.00 0.00 0.00
20260505002516 33 0.0 0.0 0.00 0.00 0.00
20260505001516 33 0.0 0.0 0.00 0.00 0.00
20260505000516 34 0.0 0.9 0.00 0.00 0.00
20260504235516 35 0.0 0.0 0.00 0.00 0.00
20260504234516 35 0.0 0.0 0.00 0.00 0.00
20260504233516 35 0.0 0.0 0.00 0.00 0.00
20260504232516 34 0.0 0.0 0.00 0.00 0.00
20260504231516 35 0.0 1.7 0.00 0.00 0.00
20260504230516 36 0.0 0.0 0.00 0.00 0.00
20260504225536 35 0.0 0.0 0.00 0.00 0.00
20260504224516 36 0.0 0.0 0.00 0.00 0.00
20260504223536 36 0.0 0.0 0.00 0.00 0.00
20260504222516 36 0.0 0.0 0.00 0.00 0.00
20260504221516 37 0.0 0.0 0.00 0.00 0.00
20260504220516 37 0.0 0.0 0.00 0.00 0.00
20260504215516 38 0.0 0.0 0.00 0.00 0.00
20260504214516 38 0.0 0.0 0.00 0.00 0.00
20260504213536 38 0.0 0.0 0.00 0.00 0.00
20260504212516 39 0.0 0.0 0.00 0.00 0.00
20260504211516 39 0.0 0.0 0.00 0.00 0.00
20260504210516 39 0.0 0.0 0.00 0.00 0.00
20260504205516 40 0.0 0.0 0.00 0.00 0.00
20260504204516 40 0.0 0.0 0.00 0.00 0.00
20260504203536 41 0.0 0.0 0.00 0.00 0.00
20260504202516 40 0.0 0.0 0.00 0.00 0.00
20260504201536 42 0.0 0.9 0.00 0.00 0.00
20260504200516 42 0.0 0.0 0.00 0.00 0.00
20260504195517 42 0.0 0.0 0.00 0.00 0.00
20260504194516 43 0.0 0.9 0.00 0.00 0.00
20260504193516 44 0.0 0.0 0.00 0.00 0.00
20260504192516 44 0.0 0.0 0.00 0.00 0.00
20260504191516 44 0.0 0.9 0.00 0.00 0.00
20260504190516 46 0.0 0.0 0.00 0.00 0.00
20260504185516 46 0.0 0.0 0.00 0.00 0.00
20260504184516 48 0.0 0.0 0.00 0.00 0.00
20260504183516 49 0.0 0.0 0.00 0.00 0.00
20260504182536 49 0.0 0.0 0.00 0.00 0.00
20260504181516 50 0.0 0.0 0.00 0.00 0.00
20260504180516 51 0.0 0.0 0.00 0.00 0.00
20260504175516 53 0.0 0.9 0.00 0.00 0.00
20260504174536 54 0.0 0.9 0.00 0.00 0.00
20260504173516 55 0.0 0.9 0.00 0.00 0.00
20260504172536 56 0.0 1.7 0.00 0.00 0.00
20260504171516 56 0.0 1.7 0.00 0.00 0.00
20260504170516 56 0.0 1.7 0.00 0.00 0.00
20260504150516 61 135 1.7 6.1 0.00 0.00 0.00
20260504140516 60 135 3.5 7.0 0.00 0.00 0.00
20260504130516 60 135 3.5 7.8 0.00 0.00 0.00
20260504110516 61 135 2.6 6.1 0.00 0.00 0.00
20260504100516 61 135 2.6 7.0 0.00 0.00 0.00